When you browse on this site, cookies collect data to enhance your experience and personalize the content and advertising you see.
Visit our Privacy Policy to learn more. By continuing to use the site, you agree to this use of cookies and data.
  • In Sweden
  • List of Countries
  • For 7 days
  • Water Temperature
  • Satellite Maps
  • Weather Map
  • Weather Widgets
  • user-avatar
    Login

    Hourly Weather Dziwle

    Today, 24 April, Wednesday

    Time Temperature Precipitation Wind Pressure Humidity
    00:00 +10°C° 0 mm 7 mps 741 mmHg 58%
    01:00 +9°C° 0 mm 7 mps 740 mmHg 59%
    02:00 +9°C° 0 mm 7 mps 740 mmHg 62%
    03:00 +8°C° 0 mm 6 mps 740 mmHg 65%
    04:00 +8°C° 0 mm 6 mps 740 mmHg 68%
    05:00 +9°C° 0 mm 6 mps 740 mmHg 68%
    06:00 +9°C° 0 mm 7 mps 740 mmHg 68%
    07:00 +10°C° 0 mm 7 mps 740 mmHg 69%
    08:00 +12°C° 0 mm 7 mps 740 mmHg 65%
    09:00 +15°C° 0 mm 7 mps 740 mmHg 61%
    10:00 +16°C° 0 mm 7 mps 740 mmHg 56%
    11:00 +17°C° 0 mm 7 mps 740 mmHg 55%
    12:00 +18°C° 0 mm 8 mps 740 mmHg 54%
    13:00 +18°C° 0 mm 8 mps 740 mmHg 52%
    14:00 +20°C° 0 mm 7 mps 740 mmHg 52%
    15:00 +20°C° 0 mm 7 mps 740 mmHg 52%
    16:00 +20°C° 0 mm 7 mps 740 mmHg 52%
    17:00 +19°C° 0 mm 6 mps 740 mmHg 57%
    18:00 +17°C° 0 mm 6 mps 740 mmHg 61%
    19:00 +15°C° 0 mm 6 mps 740 mmHg 66%
    20:00 +15°C° 0 mm 5 mps 740 mmHg 69%
    21:00 +14°C° 0 mm 5 mps 740 mmHg 72%
    22:00 +13°C° 0 mm 5 mps 740 mmHg 75%
    23:00 +13°C° 0 mm 5 mps 740 mmHg 76%

    Tomorrow, 25 April, Thursday

    Time Temperature Precipitation Wind Pressure Humidity
    00:00 +12°C° 0 mm 5 mps 740 mmHg 77%
    01:00 +12°C° 0 mm 5 mps 740 mmHg 78%
    02:00 +12°C° 0 mm 5 mps 740 mmHg 79%
    03:00 +12°C° 0 mm 5 mps 739 mmHg 80%
    04:00 +12°C° 0 mm 5 mps 739 mmHg 81%
    05:00 +13°C° 0 mm 5 mps 739 mmHg 77%
    06:00 +15°C° 0 mm 5 mps 739 mmHg 74%
    07:00 +16°C° 0 mm 5 mps 739 mmHg 70%
    08:00 +17°C° 0 mm 5 mps 740 mmHg 65%
    09:00 +19°C° 0 mm 5 mps 740 mmHg 60%
    10:00 +21°C° 0 mm 5 mps 740 mmHg 55%
    11:00 +21°C° 0 mm 5 mps 740 mmHg 53%
    12:00 +21°C° 0 mm 5 mps 739 mmHg 52%
    13:00 +22°C° 0 mm 5 mps 739 mmHg 50%
    14:00 +22°C° 0 mm 4 mps 739 mmHg 52%
    15:00 +21°C° 0 mm 4 mps 739 mmHg 54%
    16:00 +21°C° 0 mm 3 mps 739 mmHg 55%
    17:00 +20°C° 0 mm 3 mps 739 mmHg 59%
    18:00 +19°C° 0 mm 3 mps 739 mmHg 62%
    19:00 +19°C° 0 mm 2 mps 739 mmHg 65%
    20:00 +18°C° 0 mm 2 mps 739 mmHg 67%
    21:00 +18°C° 0 mm 3 mps 739 mmHg 69%
    22:00 +17°C° 0 mm 3 mps 739 mmHg 71%
    23:00 +16°C° 0 mm 3 mps 739 mmHg 72%

    Day after tomorrow, 26 April, Friday

    Time Temperature Precipitation Wind Pressure Humidity
    00:00 +16°C° 0 mm 3 mps 739 mmHg 74%
    01:00 +14°C° 0 mm 3 mps 738 mmHg 76%
    02:00 +13°C° 0 mm 3 mps 738 mmHg 76%
    03:00 +13°C° 0 mm 3 mps 738 mmHg 77%
    04:00 +13°C° 0 mm 3 mps 738 mmHg 78%
    05:00 +14°C° 0 mm 3 mps 738 mmHg 74%
    06:00 +17°C° 0 mm 3 mps 737 mmHg 70%
    07:00 +18°C° 0 mm 4 mps 737 mmHg 66%
    08:00 +20°C° 0 mm 3 mps 737 mmHg 60%
    09:00 +21°C° 0 mm 3 mps 737 mmHg 53%
    10:00 +24°C° 0 mm 3 mps 737 mmHg 46%
    11:00 +25°C° 0 mm 3 mps 737 mmHg 44%
    12:00 +25°C° 0 mm 3 mps 737 mmHg 41%
    13:00 +26°C° 0 mm 4 mps 736 mmHg 39%
    14:00 +26°C° 0 mm 4 mps 736 mmHg 40%
    15:00 +26°C° 0 mm 4 mps 736 mmHg 41%
    16:00 +25°C° 0 mm 4 mps 735 mmHg 42%
    17:00 +24°C° 0 mm 3 mps 735 mmHg 47%
    18:00 +21°C° 0 mm 2 mps 735 mmHg 53%
    19:00 +20°C° 0 mm 2 mps 735 mmHg 58%
    20:00 +19°C° 0 mm 2 mps 735 mmHg 62%
    21:00 +18°C° 0 mm 2 mps 735 mmHg 66%
    22:00 +17°C° 0 mm 2 mps 735 mmHg 70%
    23:00 +17°C° 0 mm 2 mps 735 mmHg 72%

    27 April, Saturday

    Time Temperature Precipitation Wind Pressure Humidity
    00:00 +16°C° 0 mm 2 mps 735 mmHg 74%
    01:00 +16°C° 0 mm 3 mps 735 mmHg 77%
    02:00 +16°C° 0 mm 3 mps 735 mmHg 75%
    03:00 +15°C° 0 mm 4 mps 735 mmHg 74%
    04:00 +15°C° 0 mm 4 mps 734 mmHg 72%
    05:00 +15°C° 0 mm 5 mps 734 mmHg 71%
    06:00 +14°C° 0 mm 6 mps 735 mmHg 70%
    07:00 +14°C° 0 mm 7 mps 735 mmHg 69%
    08:00 +15°C° 0 mm 7 mps 735 mmHg 67%
    09:00 +16°C° 0 mm 6 mps 735 mmHg 66%
    10:00 +17°C° 0 mm 6 mps 735 mmHg 64%
    11:00 +17°C° 0 mm 6 mps 735 mmHg 64%
    12:00 +19°C° 0 mm 5 mps 735 mmHg 64%
    13:00 +19°C° 0 mm 5 mps 735 mmHg 64%
    14:00 +17°C° 0.1 mm 5 mps 735 mmHg 65%
    15:00 +17°C° 0.1 mm 6 mps 736 mmHg 66%
    16:00 +17°C° 0.1 mm 6 mps 736 mmHg 68%
    17:00 +15°C° 0 mm 5 mps 736 mmHg 71%
    18:00 +14°C° 0 mm 5 mps 737 mmHg 73%
    19:00 +12°C° 0 mm 5 mps 737 mmHg 76%
    20:00 +10°C° 0 mm 5 mps 737 mmHg 77%
    21:00 +10°C° 0 mm 4 mps 738 mmHg 78%
    22:00 +10°C° 0 mm 4 mps 738 mmHg 79%
    23:00 +8°C° 0 mm 4 mps 739 mmHg 81%

    28 April, Sunday

    Time Temperature Precipitation Wind Pressure Humidity
    00:00 +7°C° 0 mm 4 mps 739 mmHg 83%
    01:00 +7°C° 0 mm 4 mps 739 mmHg 85%
    02:00 +6°C° 0 mm 4 mps 739 mmHg 86%
    03:00 +6°C° 0 mm 4 mps 740 mmHg 87%
    04:00 +6°C° 0 mm 4 mps 740 mmHg 89%
    05:00 +7°C° 0 mm 4 mps 740 mmHg 85%
    06:00 +8°C° 0 mm 4 mps 740 mmHg 81%
    07:00 +9°C° 0 mm 5 mps 741 mmHg 78%
    08:00 +10°C° 0 mm 5 mps 741 mmHg 72%
    09:00 +12°C° 0 mm 5 mps 741 mmHg 67%
    10:00 +14°C° 0 mm 5 mps 741 mmHg 61%
    11:00 +14°C° 0 mm 5 mps 741 mmHg 60%
    12:00 +15°C° 0 mm 5 mps 741 mmHg 59%
    13:00 +15°C° 0 mm 5 mps 741 mmHg 59%
    14:00 +15°C° 0 mm 4 mps 741 mmHg 60%
    15:00 +15°C° 0 mm 4 mps 741 mmHg 61%
    16:00 +14°C° 0 mm 4 mps 741 mmHg 63%
    17:00 +14°C° 0 mm 4 mps 741 mmHg 66%
    18:00 +13°C° 0 mm 3 mps 741 mmHg 70%
    19:00 +12°C° 0 mm 3 mps 741 mmHg 73%
    20:00 +12°C° 0 mm 3 mps 741 mmHg 73%
    21:00 +11°C° 0 mm 4 mps 741 mmHg 74%
    22:00 +11°C° 0 mm 4 mps 741 mmHg 74%
    23:00 +11°C° 0 mm 4 mps 741 mmHg 76%

    29 April, Monday

    Time Temperature Precipitation Wind Pressure Humidity
    00:00 +10°C° 0 mm 5 mps 741 mmHg 77%
    01:00 +10°C° 0 mm 5 mps 741 mmHg 79%
    02:00 +10°C° 0.3 mm 5 mps 741 mmHg 83%
    03:00 +9°C° 0.3 mm 5 mps 740 mmHg 87%
    04:00 +9°C° 0.3 mm 5 mps 740 mmHg 91%
    05:00 +11°C° 0.7 mm 4 mps 740 mmHg 92%
    06:00 +11°C° 0.7 mm 4 mps 740 mmHg 92%
    07:00 +11°C° 0.7 mm 4 mps 740 mmHg 93%
    08:00 +12°C° 0.4 mm 4 mps 740 mmHg 92%
    09:00 +13°C° 0.4 mm 3 mps 740 mmHg 91%
    10:00 +13°C° 0.4 mm 3 mps 740 mmHg 89%
    11:00 +14°C° 1.6 mm 3 mps 740 mmHg 90%
    12:00 +14°C° 1.6 mm 3 mps 740 mmHg 90%
    13:00 +16°C° 1.6 mm 3 mps 739 mmHg 90%
    14:00 +16°C° 1.5 mm 3 mps 739 mmHg 88%
    15:00 +16°C° 1.5 mm 3 mps 739 mmHg 86%
    16:00 +15°C° 1.5 mm 4 mps 739 mmHg 85%
    17:00 +15°C° 0.2 mm 4 mps 739 mmHg 87%
    18:00 +14°C° 0.2 mm 4 mps 739 mmHg 89%
    19:00 +13°C° 0.2 mm 4 mps 739 mmHg 92%
    20:00 +13°C° 0.1 mm 4 mps 740 mmHg 92%
    21:00 +13°C° 0.1 mm 3 mps 740 mmHg 92%
    22:00 +13°C° 0.1 mm 3 mps 740 mmHg 93%
    23:00 +12°C° 0 mm 3 mps 740 mmHg 93%
    Show more